Regional Weather Roundup
Issued by NWS

Home | Current Version | Previous Version | Graphics & Text | Print | Product List | Glossary On
Versions: 1 2 3 4 5 6 7 8 9 10 11 12 13 14 15 16 17 18 19 20 21 22 23 24 25 26 27
000
ASUS45 KBOI 220410
RWRID

IDAHO REGIONAL WEATHER ROUNDUP
NATIONAL WEATHER SERVICE BOISE ID
1000 PM MDT TUE MAR 21 2017

NOTE: "FAIR" INDICATES FEW OR NO CLOUDS BELOW 12000 FEET
WITH NO SIGNIFICANT WEATHER AND/OR OBSTRUCTIONS TO VISIBILITY

IDZ012-014-220500-
SOUTHWEST IDAHO


CITY           SKY/WX    TMP DP  RH WIND       PRES   REMARKS
BOISE          CLOUDY    49  41  74 E10       29.86F
CALDWELL       CLOUDY    49  44  83 NW7       29.88R
MOUNTAIN HOME  CLOUDY    49  47  90 N12       29.89F
$$

IDZ016-017-220500-
SOUTHCENTRAL IDAHO


CITY           SKY/WX    TMP DP  RH WIND       PRES   REMARKS
BURLEY         LGT RAIN  49  44  83 W14G29    29.90R
JEROME         RAIN      47  46  97 W9        29.92R
TWIN FALLS     LGT RAIN  47  44  90 SW6       29.93R
$$

IDZ019>023-220500-
SOUTHEAST IDAHO


CITY           SKY/WX    TMP DP  RH WIND       PRES   REMARKS
IDAHO FALLS    TSTM      56  40  55 SW21G33   29.89R
POCATELLO      CLOUDY    51  47  86 S5        29.86R
REXBURG        CLOUDY    58  31  35 SE14G20   29.82F
$$

IDZ006-010-011-018-031-032-220500-
CENTRAL IDAHO MOUNTAINS


CITY           SKY/WX    TMP DP  RH WIND       PRES   REMARKS
MCCALL         CLOUDY    35  32  88 N3        29.89F
HAILEY         RAIN      46  39  76 SE8G21    29.93R
STANLEY          N/A     35  34  96 N5        29.93R WCI  31
SALMON         CLOUDY    54  39  58 SW9       29.79R
CHALLIS        LGT RAIN  47  42  83 SW5       29.83R
$$

IDZ002-004-006-007-026-220500-
NORTHERN IDAHO


CITY           SKY/WX    TMP DP  RH WIND       PRES   REMARKS
LEWISTON       CLOUDY    47  43  86 N5        29.80R
LOWELL           N/A     45  43  93 CALM      29.86R
COEUR D`ALENE  LGT RAIN  42  41  96 CALM      29.77F
MULLAN PASS    SNOW      33  33 100 W8G22     29.78R VSB 1/2 WCI  26
$$




USA.gov is the U.S. government's official web portal to all federal, state and local government web resources and services.